• In Hungary
  • List of Countries
  • For 7 days
  • Water Temperature
  • Satellite Maps
  • Weather Map
  • News
  • Weather Widgets
  • user-avatar
    Login

    Hourly Weather Nyutyug

    Today, 25 September, Tuesday

    Time Temperature Precipitation Wind Pressure Humidity
    00:00 +19°C° 0 mm 2 mps 727 mmHg 72%
    01:00 +19°C° 0 mm 2 mps 727 mmHg 71%
    02:00 +19°C° 0 mm 2 mps 726 mmHg 70%
    03:00 +19°C° 0 mm 3 mps 726 mmHg 68%
    04:00 +19°C° 0 mm 3 mps 726 mmHg 68%
    05:00 +19°C° 0 mm 3 mps 726 mmHg 68%
    06:00 +19°C° 0 mm 3 mps 726 mmHg 67%
    07:00 +22°C° 0 mm 3 mps 726 mmHg 60%
    08:00 +25°C° 0 mm 3 mps 725 mmHg 53%
    09:00 +28°C° 0 mm 3 mps 725 mmHg 45%
    10:00 +29°C° 0 mm 3 mps 725 mmHg 43%
    11:00 +30°C° 0 mm 3 mps 724 mmHg 41%
    12:00 +32°C° 0 mm 4 mps 724 mmHg 40%
    13:00 +32°C° 0 mm 4 mps 724 mmHg 41%
    14:00 +31°C° 0 mm 3 mps 723 mmHg 42%
    15:00 +30°C° 0 mm 4 mps 723 mmHg 45%
    16:00 +28°C° 0 mm 3 mps 723 mmHg 54%
    17:00 +26°C° 0 mm 2 mps 723 mmHg 63%
    18:00 +23°C° 0 mm 1 mps 723 mmHg 71%
    19:00 +23°C° 0 mm 1 mps 723 mmHg 70%
    20:00 +23°C° 0 mm 2 mps 723 mmHg 69%
    21:00 +23°C° 0 mm 2 mps 724 mmHg 67%
    22:00 +23°C° 0 mm 2 mps 724 mmHg 67%
    23:00 +23°C° 0 mm 2 mps 724 mmHg 67%

    Tomorrow, 26 September, Wednesday

    Time Temperature Precipitation Wind Pressure Humidity
    00:00 +21°C° 0 mm 2 mps 724 mmHg 66%
    01:00 +21°C° 0 mm 2 mps 724 mmHg 68%
    02:00 +21°C° 0 mm 2 mps 724 mmHg 70%
    03:00 +20°C° 0 mm 2 mps 724 mmHg 72%
    04:00 +20°C° 0 mm 2 mps 725 mmHg 76%
    05:00 +20°C° 0 mm 3 mps 725 mmHg 80%
    06:00 +19°C° 0 mm 3 mps 725 mmHg 85%
    07:00 +21°C° 0.1 mm 3 mps 726 mmHg 79%
    08:00 +22°C° 0.1 mm 4 mps 726 mmHg 74%
    09:00 +25°C° 0.1 mm 4 mps 726 mmHg 69%
    10:00 +25°C° 0.2 mm 5 mps 726 mmHg 69%
    11:00 +25°C° 0.2 mm 5 mps 727 mmHg 70%
    12:00 +24°C° 0.2 mm 6 mps 727 mmHg 70%
    13:00 +23°C° 0.2 mm 6 mps 727 mmHg 73%
    14:00 +22°C° 0.2 mm 6 mps 727 mmHg 76%
    15:00 +21°C° 0.2 mm 6 mps 727 mmHg 78%
    16:00 +20°C° 0.1 mm 6 mps 728 mmHg 82%
    17:00 +19°C° 0.1 mm 5 mps 728 mmHg 85%
    18:00 +16°C° 0.1 mm 5 mps 729 mmHg 89%
    19:00 +16°C° 0.1 mm 5 mps 729 mmHg 89%
    20:00 +17°C° 0.1 mm 4 mps 730 mmHg 90%
    21:00 +15°C° 0.1 mm 4 mps 730 mmHg 90%
    22:00 +15°C° 0 mm 4 mps 730 mmHg 90%
    23:00 +16°C° 0 mm 3 mps 730 mmHg 90%

    Day after tomorrow, 27 September, Thursday

    Time Temperature Precipitation Wind Pressure Humidity
    00:00 +14°C° 0 mm 3 mps 731 mmHg 90%
    01:00 +14°C° 0 mm 3 mps 731 mmHg 90%
    02:00 +14°C° 0 mm 3 mps 731 mmHg 90%
    03:00 +14°C° 0 mm 3 mps 731 mmHg 90%
    04:00 +14°C° 0 mm 3 mps 731 mmHg 90%
    05:00 +14°C° 0 mm 3 mps 731 mmHg 89%
    06:00 +14°C° 0 mm 3 mps 731 mmHg 88%
    07:00 +16°C° 0 mm 3 mps 731 mmHg 83%
    08:00 +17°C° 0 mm 3 mps 732 mmHg 77%
    09:00 +18°C° 0 mm 4 mps 732 mmHg 72%
    10:00 +18°C° 0 mm 4 mps 732 mmHg 70%
    11:00 +19°C° 0 mm 4 mps 732 mmHg 67%
    12:00 +19°C° 0 mm 4 mps 732 mmHg 65%
    13:00 +19°C° 0 mm 4 mps 732 mmHg 67%
    14:00 +19°C° 0 mm 4 mps 731 mmHg 68%
    15:00 +19°C° 0 mm 3 mps 731 mmHg 69%
    16:00 +18°C° 0 mm 3 mps 731 mmHg 75%
    17:00 +17°C° 0 mm 2 mps 731 mmHg 81%
    18:00 +16°C° 0 mm 2 mps 731 mmHg 87%
    19:00 +16°C° 0 mm 2 mps 731 mmHg 87%
    20:00 +15°C° 0 mm 1 mps 731 mmHg 87%
    21:00 +15°C° 0 mm 1 mps 732 mmHg 88%
    22:00 +15°C° 0 mm 1 mps 731 mmHg 87%
    23:00 +15°C° 0 mm 1 mps 731 mmHg 86%

    28 September, Friday

    Time Temperature Precipitation Wind Pressure Humidity
    00:00 +15°C° 0 mm 1 mps 731 mmHg 85%
    01:00 +15°C° 0 mm 1 mps 731 mmHg 84%
    02:00 +15°C° 0 mm 1 mps 731 mmHg 84%
    03:00 +15°C° 0 mm 1 mps 731 mmHg 83%
    04:00 +15°C° 0 mm 1 mps 731 mmHg 82%
    05:00 +15°C° 0 mm 1 mps 731 mmHg 81%
    06:00 +15°C° 0 mm 1 mps 731 mmHg 80%
    07:00 +18°C° 0 mm 1 mps 732 mmHg 74%
    08:00 +19°C° 0 mm 2 mps 732 mmHg 68%
    09:00 +21°C° 0 mm 2 mps 732 mmHg 61%
    10:00 +22°C° 0 mm 3 mps 732 mmHg 60%
    11:00 +22°C° 0 mm 3 mps 732 mmHg 58%
    12:00 +23°C° 0 mm 4 mps 732 mmHg 57%
    13:00 +23°C° 0 mm 4 mps 731 mmHg 59%
    14:00 +23°C° 0 mm 4 mps 731 mmHg 62%
    15:00 +22°C° 0 mm 4 mps 730 mmHg 64%
    16:00 +21°C° 0 mm 4 mps 730 mmHg 71%
    17:00 +20°C° 0 mm 3 mps 730 mmHg 78%
    18:00 +18°C° 0 mm 3 mps 730 mmHg 85%
    19:00 +18°C° 0 mm 3 mps 730 mmHg 84%
    20:00 +18°C° 0 mm 3 mps 730 mmHg 83%
    21:00 +17°C° 0 mm 2 mps 730 mmHg 82%
    22:00 +17°C° 0 mm 2 mps 729 mmHg 80%
    23:00 +17°C° 0 mm 2 mps 729 mmHg 77%

    29 September, Saturday

    Time Temperature Precipitation Wind Pressure Humidity
    00:00 +17°C° 0 mm 2 mps 728 mmHg 75%
    01:00 +17°C° 0 mm 2 mps 728 mmHg 73%
    02:00 +17°C° 0 mm 2 mps 728 mmHg 71%
    03:00 +17°C° 0 mm 2 mps 728 mmHg 70%
    04:00 +17°C° 0 mm 2 mps 727 mmHg 68%
    05:00 +17°C° 0 mm 2 mps 727 mmHg 67%
    06:00 +18°C° 0 mm 1 mps 727 mmHg 65%
    07:00 +20°C° 0 mm 2 mps 727 mmHg 59%
    08:00 +23°C° 0 mm 2 mps 727 mmHg 53%
    09:00 +25°C° 0 mm 2 mps 727 mmHg 47%
    10:00 +26°C° 0 mm 2 mps 727 mmHg 47%
    11:00 +27°C° 0 mm 2 mps 727 mmHg 46%
    12:00 +28°C° 0 mm 3 mps 726 mmHg 46%
    13:00 +27°C° 0 mm 3 mps 726 mmHg 48%
    14:00 +27°C° 0 mm 3 mps 726 mmHg 50%
    15:00 +27°C° 0 mm 2 mps 725 mmHg 52%
    16:00 +25°C° 0 mm 2 mps 725 mmHg 61%
    17:00 +23°C° 0 mm 1 mps 725 mmHg 70%
    18:00 +21°C° 0 mm 1 mps 726 mmHg 79%
    19:00 +21°C° 0 mm 1 mps 726 mmHg 76%
    20:00 +21°C° 0 mm 1 mps 726 mmHg 73%
    21:00 +21°C° 0 mm 1 mps 726 mmHg 70%
    22:00 +21°C° 0 mm 1 mps 726 mmHg 68%
    23:00 +21°C° 0 mm 1 mps 726 mmHg 66%

    30 September, Sunday

    Time Temperature Precipitation Wind Pressure Humidity
    00:00 +21°C° 0 mm 1 mps 726 mmHg 64%
    01:00 +21°C° 0 mm 1 mps 726 mmHg 62%
    02:00 +21°C° 0 mm 1 mps 726 mmHg 59%
    03:00 +20°C° 0 mm 1 mps 726 mmHg 57%
    04:00 +20°C° 0 mm 1 mps 726 mmHg 55%
    05:00 +20°C° 0 mm 1 mps 726 mmHg 54%
    06:00 +20°C° 0 mm 1 mps 726 mmHg 52%
    07:00 +23°C° 0 mm 1 mps 726 mmHg 48%
    08:00 +25°C° 0 mm 1 mps 726 mmHg 44%
    09:00 +27°C° 0 mm 1 mps 727 mmHg 40%
    10:00 +28°C° 0 mm 2 mps 726 mmHg 41%
    11:00 +28°C° 0 mm 2 mps 726 mmHg 41%
    12:00 +29°C° 0 mm 3 mps 726 mmHg 42%
    13:00 +29°C° 0 mm 3 mps 726 mmHg 45%
    14:00 +28°C° 0 mm 3 mps 726 mmHg 49%
    15:00 +28°C° 0 mm 3 mps 726 mmHg 53%
    16:00 +26°C° 0 mm 2 mps 726 mmHg 63%
    17:00 +24°C° 0 mm 1 mps 726 mmHg 74%
    18:00 +21°C° 0 mm 1 mps 726 mmHg 84%
    19:00 +21°C° 0 mm 1 mps 726 mmHg 82%
    20:00 +21°C° 0 mm 1 mps 727 mmHg 80%
    21:00 +21°C° 0 mm 1 mps 727 mmHg 78%
    22:00 +21°C° 0 mm 1 mps 727 mmHg 76%
    23:00 +21°C° 0 mm 1 mps 727 mmHg 74%
    Show more